This is the latest recevied weather packets stored in our database for station/object KM6RDV. If no packets are shown the sender has not sent any weather packets the latest 10 day(s).
| Time | Temp. | Humidity | Pressure | Rain* | Wind** | Luminosity | Snow |
|---|---|---|---|---|---|---|---|
| 1777676416 | 21.67° C | 55% | 1015.8 hPa | 0 mm | - | 763 W/m² | - |
| 1777675220 | 20.56° C | 57% | 1016.1 hPa | 0 mm | - | 828 W/m² | - |
| 1777671037 | 21.11° C | 57% | 1017 hPa | 0 mm | - | 851 W/m² | - |
| 1777668039 | 21.11° C | 59% | 1017.2 hPa | 0 mm | - | 1025 W/m² | - |
| 1777667421 | 20.56° C | 60% | 1017.4 hPa | 0 mm | - | 978 W/m² | - |
| 1777665037 | 20° C | 62% | 1017.9 hPa | 0 mm | - | 1003 W/m² | - |
| 1777663220 | 18.89° C | 65% | 1018.1 hPa | 0 mm | - | 1020 W/m² | - |
| 1777659616 | 16.11° C | 73% | 1018.8 hPa | 0 mm | - | 1053 W/m² | - |
| 1777658440 | 15.56° C | 74% | 1018.8 hPa | 0 mm | - | 621 W/m² | - |
| 1777657816 | 15.56° C | 75% | 1018.9 hPa | 0 mm | - | 468 W/m² | - |
| 1777655416 | 15° C | 77% | 1018.8 hPa | 0 mm | - | 370 W/m² | - |
| 1777654219 | 15° C | 76% | 1018.8 hPa | 0 mm | - | 320 W/m² | - |
| 1777649418 | 13.89° C | 80% | 1018.5 hPa | 0 mm | - | 156 W/m² | - |
| 1777647019 | 13.89° C | 79% | 1018.2 hPa | 0 mm | - | 149 W/m² | - |
| 1777645817 | 13.33° C | 81% | 1017.9 hPa | 0 mm | - | 124 W/m² | - |
| 1777645218 | 12.78° C | 83% | 1017.8 hPa | 0 mm | - | 96 W/m² | - |
| 1777643416 | 12.78° C | 83% | 1017.7 hPa | 0 mm | - | 27 W/m² | - |
| 1777629020 | 12.22° C | 84% | 1017.3 hPa | 0 mm | - | - | - |
| 1777628417 | 12.22° C | 84% | 1017.3 hPa | 0 mm | - | - | - |
| 1777621837 | 12.78° C | 82% | 1018 hPa | 0 mm | - | 0 W/m² | - |
| 1777618818 | 12.78° C | 81% | 1017.9 hPa | 0 mm | - | 0 W/m² | - |
| 1777611617 | 13.33° C | 78% | 1017.8 hPa | 0 mm | - | 0 W/m² | - |
| 1777606216 | 14.44° C | 72% | 1017 hPa | 0 mm | - | 0 W/m² | - |
| 1777602617 | 15.56° C | 66% | 1016.4 hPa | 0 mm | - | 32 W/m² | - |
| 1777600822 | 16.67° C | 63% | 1016.2 hPa | 0 mm | - | 83 W/m² | - |
* Rain latest hour (hover to see other rain measurements)
** Current wind speed in m/s (hover to see current wind gust speed)